Hourly Weather Bársonyos

Today, 19 April, Monday

Time Temperature Precipitation Wind Pressure Humidity
00:00 +8°C° 0.3 mm 1 mps 748 mmHg 93%
01:00 +6°C° 0 mm 2 mps 748 mmHg 94%
02:00 +6°C° 0.4 mm 2 mps 747 mmHg 94%
03:00 +6°C° 0.4 mm 2 mps 747 mmHg 95%
04:00 +6°C° 0.4 mm 2 mps 747 mmHg 96%
05:00 +6°C° 0.6 mm 2 mps 747 mmHg 95%
06:00 +6°C° 0.6 mm 2 mps 747 mmHg 95%
07:00 +7°C° 0 mm 1 mps 747 mmHg 95%
08:00 +7°C° 0.6 mm 1 mps 747 mmHg 94%
09:00 +8°C° 0.6 mm 1 mps 747 mmHg 94%
10:00 +8°C° 0.6 mm 1 mps 747 mmHg 93%
11:00 +8°C° 0.5 mm 1 mps 747 mmHg 92%
12:00 +8°C° 0.5 mm 1 mps 747 mmHg 92%
13:00 +8°C° 0 mm 1 mps 747 mmHg 92%
14:00 +8°C° 0.2 mm 1 mps 747 mmHg 91%
15:00 +9°C° 0.2 mm 1 mps 746 mmHg 90%
16:00 +9°C° 0.2 mm 1 mps 746 mmHg 89%
17:00 +8°C° 0 mm 1 mps 746 mmHg 90%
18:00 +8°C° 0 mm 1 mps 746 mmHg 91%
19:00 +8°C° 0 mm 1 mps 746 mmHg 92%
20:00 +8°C° 0 mm 1 mps 746 mmHg 93%
21:00 +8°C° 0 mm 1 mps 746 mmHg 94%
22:00 +7°C° 0 mm 2 mps 746 mmHg 95%
23:00 +6°C° 0 mm 2 mps 746 mmHg 95%

Tomorrow, 20 April, Tuesday

Time Temperature Precipitation Wind Pressure Humidity
00:00 +6°C° 0 mm 2 mps 746 mmHg 96%
01:00 +6°C° 0 mm 2 mps 746 mmHg 96%
02:00 +6°C° 0 mm 2 mps 746 mmHg 96%
03:00 +6°C° 0 mm 2 mps 746 mmHg 96%
04:00 +6°C° 0 mm 2 mps 746 mmHg 96%
05:00 +6°C° 0 mm 2 mps 746 mmHg 95%
06:00 +6°C° 0 mm 2 mps 746 mmHg 95%
07:00 +7°C° 0 mm 2 mps 746 mmHg 94%
08:00 +7°C° 0 mm 2 mps 746 mmHg 91%
09:00 +8°C° 0 mm 2 mps 746 mmHg 88%
10:00 +9°C° 0 mm 2 mps 747 mmHg 85%
11:00 +10°C° 0.1 mm 2 mps 746 mmHg 79%
12:00 +12°C° 0.1 mm 2 mps 746 mmHg 74%
13:00 +13°C° 0.1 mm 2 mps 746 mmHg 68%
14:00 +14°C° 0.3 mm 2 mps 746 mmHg 67%
15:00 +14°C° 0.3 mm 2 mps 745 mmHg 66%
16:00 +14°C° 0.3 mm 2 mps 745 mmHg 65%
17:00 +13°C° 0.2 mm 2 mps 745 mmHg 69%
18:00 +10°C° 0.2 mm 2 mps 745 mmHg 74%
19:00 +9°C° 0.2 mm 2 mps 745 mmHg 78%
20:00 +8°C° 0 mm 2 mps 746 mmHg 81%
21:00 +7°C° 0 mm 2 mps 746 mmHg 84%
22:00 +6°C° 0 mm 2 mps 746 mmHg 87%
23:00 +6°C° 0 mm 2 mps 746 mmHg 88%

Day after tomorrow, 21 April, Wednesday

Time Temperature Precipitation Wind Pressure Humidity
00:00 +6°C° 0 mm 2 mps 746 mmHg 90%
01:00 +5°C° 0 mm 2 mps 747 mmHg 91%
02:00 +5°C° 0 mm 2 mps 746 mmHg 91%
03:00 +5°C° 0 mm 2 mps 746 mmHg 91%
04:00 +5°C° 0 mm 2 mps 746 mmHg 91%
05:00 +6°C° 0 mm 2 mps 747 mmHg 87%
06:00 +7°C° 0 mm 2 mps 747 mmHg 84%
07:00 +8°C° 0 mm 2 mps 747 mmHg 80%
08:00 +10°C° 0 mm 2 mps 747 mmHg 74%
09:00 +12°C° 0 mm 3 mps 747 mmHg 68%
10:00 +14°C° 0 mm 3 mps 747 mmHg 62%
11:00 +16°C° 0 mm 3 mps 747 mmHg 57%
12:00 +16°C° 0 mm 3 mps 747 mmHg 53%
13:00 +17°C° 0 mm 4 mps 746 mmHg 48%
14:00 +17°C° 0 mm 3 mps 746 mmHg 49%
15:00 +17°C° 0 mm 3 mps 746 mmHg 50%
16:00 +17°C° 0 mm 3 mps 746 mmHg 50%
17:00 +16°C° 0 mm 3 mps 746 mmHg 57%
18:00 +13°C° 0 mm 3 mps 745 mmHg 63%
19:00 +11°C° 0 mm 3 mps 745 mmHg 69%
20:00 +10°C° 0 mm 3 mps 745 mmHg 73%
21:00 +10°C° 0 mm 3 mps 746 mmHg 76%
22:00 +9°C° 0 mm 3 mps 746 mmHg 79%
23:00 +8°C° 0 mm 3 mps 746 mmHg 82%

22 April, Thursday

Time Temperature Precipitation Wind Pressure Humidity
00:00 +8°C° 0 mm 3 mps 745 mmHg 85%
01:00 +7°C° 0 mm 2 mps 745 mmHg 88%
02:00 +7°C° 0 mm 2 mps 745 mmHg 89%
03:00 +6°C° 0 mm 2 mps 745 mmHg 90%
04:00 +6°C° 0 mm 2 mps 745 mmHg 91%
05:00 +7°C° 0 mm 2 mps 746 mmHg 88%
06:00 +8°C° 0 mm 2 mps 746 mmHg 84%
07:00 +9°C° 0 mm 2 mps 746 mmHg 81%
08:00 +12°C° 0 mm 2 mps 746 mmHg 75%
09:00 +12°C° 0 mm 3 mps 746 mmHg 70%
10:00 +14°C° 0 mm 3 mps 747 mmHg 64%
11:00 +14°C° 0.2 mm 3 mps 746 mmHg 63%
12:00 +16°C° 0.2 mm 3 mps 746 mmHg 63%
13:00 +16°C° 0.2 mm 3 mps 746 mmHg 62%
14:00 +13°C° 0.8 mm 4 mps 746 mmHg 72%
15:00 +10°C° 0.8 mm 5 mps 746 mmHg 82%
16:00 +8°C° 0.8 mm 6 mps 746 mmHg 93%
17:00 +7°C° 2.1 mm 5 mps 747 mmHg 93%
18:00 +7°C° 2.1 mm 4 mps 747 mmHg 94%
19:00 +6°C° 2.1 mm 4 mps 748 mmHg 95%
20:00 +5°C° 0.4 mm 3 mps 748 mmHg 94%
21:00 +5°C° 0.4 mm 3 mps 749 mmHg 93%
22:00 +6°C° 0.4 mm 2 mps 749 mmHg 92%
23:00 +5°C° 0 mm 3 mps 749 mmHg 91%

23 April, Friday

Time Temperature Precipitation Wind Pressure Humidity
00:00 +5°C° 0 mm 3 mps 749 mmHg 90%
01:00 +4°C° 0 mm 3 mps 749 mmHg 89%
02:00 +4°C° 0 mm 3 mps 749 mmHg 87%
03:00 +4°C° 0 mm 3 mps 749 mmHg 84%
04:00 +4°C° 0 mm 3 mps 749 mmHg 82%
05:00 +4°C° 0 mm 4 mps 750 mmHg 80%
06:00 +4°C° 0 mm 4 mps 751 mmHg 78%
07:00 +5°C° 0 mm 4 mps 751 mmHg 76%
08:00 +6°C° 0 mm 5 mps 751 mmHg 69%
09:00 +7°C° 0 mm 5 mps 752 mmHg 63%
10:00 +8°C° 0 mm 6 mps 752 mmHg 56%
11:00 +9°C° 0 mm 6 mps 752 mmHg 53%
12:00 +10°C° 0 mm 6 mps 752 mmHg 49%
13:00 +10°C° 0 mm 6 mps 752 mmHg 46%
14:00 +10°C° 0 mm 6 mps 752 mmHg 48%
15:00 +10°C° 0 mm 6 mps 751 mmHg 50%
16:00 +10°C° 0 mm 6 mps 751 mmHg 52%
17:00 +8°C° 0 mm 5 mps 752 mmHg 58%
18:00 +7°C° 0 mm 4 mps 752 mmHg 63%
19:00 +5°C° 0 mm 4 mps 752 mmHg 69%
20:00 +5°C° 0 mm 3 mps 753 mmHg 71%
21:00 +4°C° 0 mm 3 mps 753 mmHg 73%
22:00 +3°C° 0 mm 3 mps 753 mmHg 75%
23:00 +2°C° 0 mm 3 mps 753 mmHg 78%

24 April, Saturday

Time Temperature Precipitation Wind Pressure Humidity
00:00 +2°C° 0 mm 3 mps 753 mmHg 80%
01:00 +1°C° 0 mm 3 mps 753 mmHg 83%
02:00 +2°C° 0 mm 2 mps 753 mmHg 85%
03:00 +2°C° 0 mm 2 mps 753 mmHg 87%
04:00 +1°C° 0 mm 2 mps 753 mmHg 90%
05:00 +2°C° 0 mm 2 mps 753 mmHg 85%
06:00 +5°C° 0 mm 1 mps 754 mmHg 79%
07:00 +6°C° 0 mm 1 mps 754 mmHg 74%
08:00 +8°C° 0 mm 1 mps 754 mmHg 68%
09:00 +8°C° 0 mm 2 mps 753 mmHg 61%
10:00 +10°C° 0 mm 2 mps 753 mmHg 55%
11:00 +12°C° 0 mm 2 mps 753 mmHg 52%
12:00 +13°C° 0 mm 2 mps 752 mmHg 48%
13:00 +14°C° 0 mm 2 mps 752 mmHg 45%
14:00 +14°C° 0 mm 2 mps 752 mmHg 45%
15:00 +14°C° 0 mm 2 mps 752 mmHg 45%
16:00 +14°C° 0 mm 2 mps 751 mmHg 46%
17:00 +12°C° 0 mm 1 mps 751 mmHg 51%
18:00 +11°C° 0 mm 1 mps 751 mmHg 56%
19:00 +9°C° 0 mm 1 mps 751 mmHg 61%
20:00 +9°C° 0 mm 1 mps 751 mmHg 62%
21:00 +8°C° 0 mm 1 mps 752 mmHg 62%
22:00 +7°C° 0 mm 2 mps 752 mmHg 63%
23:00 +6°C° 0 mm 2 mps 752 mmHg 65%
Show more